{"data":{"norad_id":66256,"epoch":"2026-09-19T23:09:11.463264Z","epoch_age_seconds":142938,"freshness":"FRESH","line1":"1 66256U 25245Y   26262.96471601  .00016001  00000+0  48383-3 0  9991","line2":"2 66256  53.1593  99.8923 0001272  81.4347 278.6800 15.34390845 51023","mean_motion":15.34390845,"eccentricity":0.0001272,"inclination_deg":53.1593,"raan_deg":99.8923,"arg_perigee_deg":81.4347,"mean_anomaly_deg":278.68,"bstar":0.00048383,"rev_number":5102,"period_min":93.848318027471,"perigee_km":461.86029259197,"apogee_km":463.60060927149,"semimajor_km":6840.8674509317,"source":"CELESTRAK","updated_at":"2026-09-21T09:00:35.850513Z"}}